Weather History for KPTT - October, 2012

Change the Weather History Date:

Sunday, October 28, 2012

  Actual Average (KP28) Record (KP28)
Temperature  
Mean Temperature 44 °F 54 °F  
Max Temperature 59 °F 66 °F 88 °F (1922)
Min Temperature 28 °F 41 °F 19 °F (1925)
Degree Days  
Heating Degree Days 22 11  
Month to date heating degree days 200  
Since 1 July heating degree days 234  
Cooling Degree Days 0 0  
Month to date cooling degree days 37  
Year to date cooling degree days 1768  
Moisture  
Dew Point 23 °F    
Average Humidity 50    
Maximum Humidity 80    
Minimum Humidity 25    
Precipitation  
Precipitation 0.00 in 0.07 in 2.22 in (1900)
Month to date precipitation 2.60  
Year to date precipitation 25.05  
Snow  
Snow 0.00 in 0.00 in - ()
Month to date snowfall 0.0  
Since 1 July snowfall 0.0  
Since 1 September snowfall 0.0  
Snow Depth -    
Sea Level Pressure  
Sea Level Pressure 30.22 in    
Wind  
Wind Speed 7 mph (SSE)    
Max Wind Speed 14 mph    
Max Gust Speed 17 mph    
Visibility 10 miles    
Events      
T = Trace of Precipitation, MM = Missing Value Source: NWS Daily Summary

Daily Weather History Graph

Daily Weather History Graph

Search for Another Location

Airport or City:

Trip Planner

Search our weather history database for the weather conditions in past years. The results will help you decide how hot, cold, wet, or windy it might be!

Date:

Astronomy

Oct. 28, 2012 Rise Set
Actual Time 7:56 AM CDT 6:40 PM CDT
Civil Twilight 7:29 AM CDT 7:07 PM CDT
Nautical Twilight 6:58 AM CDT 7:38 PM CDT
Astronomical Twilight 6:28 AM CDT 8:08 PM CDT
Moon 5:58 PM CDT (10/28) 6:51 AM CDT (10/28)
Length of Visible Light 11h 37m
Length of Day
10h 43m
Waxing Gibbous, 99% of the Moon is Illuminated
Oct 28
Waxing Gibbous
Oct 29
Full
Nov 6
Last Quarter
Nov 13
New
Nov 20
First Quarter

Hourly Weather History & Observations

Time (CDT) Temp. Windchill Dew Point Humidity Pressure Visibility Wind Dir Wind Speed Gust Speed Precip Events Conditions
12:15 AM 33.8 °F 29.6 °F 21.2 °F 60% 30.25 in 10.0 mi South 4.6 mph - N/A   Clear
12:35 AM 33.8 °F 30.8 °F 21.2 °F 60% 30.25 in 10.0 mi SSE 3.5 mph - N/A   Clear
12:55 AM 33.8 °F 30.8 °F 21.2 °F 60% 30.25 in 10.0 mi South 3.5 mph - N/A   Clear
1:15 AM 33.8 °F - 21.2 °F 60% 30.25 in 10.0 mi Calm Calm - N/A   Clear
1:35 AM 32.0 °F 28.7 °F 21.2 °F 64% 30.26 in 10.0 mi South 3.5 mph - N/A   Clear
1:55 AM 32.0 °F - 21.2 °F 64% 30.25 in 10.0 mi Calm Calm - N/A   Clear
2:15 AM 32.0 °F 28.7 °F 21.2 °F 64% 30.25 in 10.0 mi SSE 3.5 mph - N/A   Clear
2:35 AM 32.0 °F 27.5 °F 21.2 °F 64% 30.24 in 10.0 mi South 4.6 mph - N/A   Clear
2:55 AM 32.0 °F 28.7 °F 21.2 °F 64% 30.24 in 10.0 mi South 3.5 mph - N/A   Clear
3:15 AM 30.2 °F 26.7 °F 21.2 °F 69% 30.25 in 10.0 mi South 3.5 mph - N/A   Clear
3:35 AM 30.2 °F 26.7 °F 21.2 °F 69% 30.24 in 10.0 mi SSW 3.5 mph - N/A   Clear
3:55 AM 28.4 °F 24.6 °F 21.2 °F 74% 30.25 in 10.0 mi SW 3.5 mph - N/A   Clear
4:15 AM 28.4 °F 24.6 °F 21.2 °F 74% 30.25 in 10.0 mi SSW 3.5 mph - N/A   Clear
4:35 AM 30.2 °F 25.4 °F 21.2 °F 69% 30.24 in 10.0 mi South 4.6 mph - N/A   Clear
4:55 AM 30.2 °F 25.4 °F 21.2 °F 69% 30.24 in 10.0 mi South 4.6 mph - N/A   Clear
5:15 AM 32.0 °F 26.4 °F 23.0 °F 69% 30.24 in 10.0 mi South 5.8 mph - N/A   Clear
5:35 AM 32.0 °F 25.6 °F 23.0 °F 69% 30.25 in 10.0 mi South 6.9 mph - N/A   Clear
5:55 AM 32.0 °F 25.6 °F 23.0 °F 69% 30.25 in 10.0 mi South 6.9 mph - N/A   Clear
6:15 AM 32.0 °F 26.4 °F 23.0 °F 69% 30.25 in 10.0 mi South 5.8 mph - N/A   Clear
6:35 AM 32.0 °F 26.4 °F 23.0 °F 69% 30.25 in 10.0 mi South 5.8 mph - N/A   Clear
6:55 AM 32.0 °F 25.6 °F 23.0 °F 69% 30.25 in 10.0 mi South 6.9 mph - N/A   Clear
7:15 AM 30.2 °F 25.4 °F 21.2 °F 69% 30.25 in 10.0 mi SSE 4.6 mph - N/A   Clear
7:35 AM 30.2 °F 24.3 °F 21.2 °F 69% 30.25 in 10.0 mi South 5.8 mph - N/A   Clear
7:55 AM 32.0 °F 25.6 °F 23.0 °F 69% 30.26 in 10.0 mi South 6.9 mph - N/A   Clear
8:15 AM 28.4 °F 23.3 °F 21.2 °F 74% 30.26 in 10.0 mi South 4.6 mph - N/A   Clear
8:35 AM 28.4 °F 22.2 °F 23.0 °F 80% 30.27 in 10.0 mi South 5.8 mph - N/A   Clear
8:55 AM 32.0 °F 25.6 °F 24.8 °F 75% 30.27 in 10.0 mi South 6.9 mph - N/A   Clear
9:35 AM 35.6 °F 28.0 °F 23.0 °F 60% 30.27 in 10.0 mi South 10.4 mph - N/A   Clear
9:55 AM 39.2 °F 33.0 °F 23.0 °F 52% 30.27 in 10.0 mi South 9.2 mph - N/A   Clear
10:15 AM 42.8 °F 36.6 °F 23.0 °F 46% 30.27 in 10.0 mi South 11.5 mph - N/A   Clear
10:35 AM 44.6 °F 38.4 °F 23.0 °F 43% 30.27 in 10.0 mi South 12.7 mph - N/A   Clear
10:55 AM 46.4 °F 40.4 °F 21.2 °F 37% 30.27 in 10.0 mi SSW 13.8 mph - N/A   Clear
11:15 AM 46.4 °F 41.1 °F 21.2 °F 37% 30.27 in 10.0 mi South 11.5 mph 17.3 mph N/A   Clear
11:35 AM 48.2 °F - 21.2 °F 34% 30.26 in 10.0 mi SSW 10.4 mph - N/A   Clear
11:55 AM 50.0 °F - 23.0 °F 35% 30.25 in 10.0 mi South 11.5 mph - N/A   Clear
12:35 PM 51.8 °F - 23.0 °F 33% 30.26 in 10.0 mi South 10.4 mph - N/A   Clear
12:55 PM 53.6 °F - 23.0 °F 30% 30.24 in 10.0 mi South 9.2 mph - N/A   Clear
1:15 PM 53.6 °F - 23.0 °F 30% 30.23 in 10.0 mi SSE 11.5 mph - N/A   Clear
1:35 PM 55.4 °F - 23.0 °F 29% 30.21 in 10.0 mi South 10.4 mph - N/A   Clear
1:55 PM 55.4 °F - 23.0 °F 29% 30.21 in 10.0 mi South 10.4 mph 16.1 mph N/A   Clear
2:15 PM 55.4 °F - 23.0 °F 29% 30.19 in 10.0 mi South 12.7 mph 16.1 mph N/A   Clear
2:35 PM 55.4 °F - 23.0 °F 29% 30.19 in 10.0 mi South 10.4 mph - N/A   Clear
2:55 PM 55.4 °F - 23.0 °F 29% 30.18 in 10.0 mi SSE 10.4 mph - N/A   Clear
3:15 PM 55.4 °F - 23.0 °F 29% 30.17 in 10.0 mi SSE 11.5 mph 16.1 mph N/A   Clear
3:35 PM 57.2 °F - 23.0 °F 27% 30.17 in 10.0 mi SSE 11.5 mph 16.1 mph N/A   Clear
3:55 PM 55.4 °F - 23.0 °F 29% 30.17 in 10.0 mi SSE 11.5 mph - N/A   Clear
4:15 PM 59.0 °F - 23.0 °F 25% 30.17 in 10.0 mi South 12.7 mph 17.3 mph N/A   Clear
4:35 PM 57.2 °F - 23.0 °F 27% 30.17 in 10.0 mi South 12.7 mph - N/A   Clear
4:55 PM 55.4 °F - 23.0 °F 29% 30.16 in 10.0 mi South 10.4 mph - N/A   Clear
5:15 PM 55.4 °F - 23.0 °F 29% 30.16 in 10.0 mi SSE 10.4 mph - N/A   Clear
5:35 PM 53.6 °F - 23.0 °F 30% 30.16 in 10.0 mi SSE 10.4 mph - N/A   Clear
5:55 PM 53.6 °F - 23.0 °F 30% 30.15 in 10.0 mi SSE 10.4 mph - N/A   Clear
6:15 PM 53.6 °F - 24.8 °F 33% 30.16 in 10.0 mi SE 11.5 mph 16.1 mph N/A   Clear
6:35 PM 51.8 °F - 24.8 °F 35% 30.16 in 10.0 mi SE 10.4 mph - N/A   Clear
6:55 PM 50.0 °F - 24.8 °F 37% 30.16 in 10.0 mi SE 8.1 mph - N/A   Clear
7:15 PM 50.0 °F - 24.8 °F 37% 30.15 in 10.0 mi SE 9.2 mph - N/A   Clear
7:35 PM 48.2 °F - 24.8 °F 40% 30.16 in 10.0 mi SE 8.1 mph - N/A   Clear
7:55 PM 46.4 °F 41.5 °F 24.8 °F 43% 30.16 in 10.0 mi SE 10.4 mph - N/A   Clear
8:15 PM 46.4 °F 41.9 °F 24.8 °F 43% 30.17 in 10.0 mi SE 9.2 mph - N/A   Clear
8:55 PM 44.6 °F 39.7 °F 26.6 °F 49% 30.16 in 10.0 mi SSE 9.2 mph - N/A   Clear
9:15 PM 44.6 °F 39.7 °F 26.6 °F 49% 30.17 in 10.0 mi SSE 9.2 mph - N/A   Clear
9:35 PM 44.6 °F 39.7 °F 26.6 °F 49% 30.19 in 10.0 mi SE 9.2 mph - N/A   Clear
9:55 PM 42.8 °F 38.0 °F 26.6 °F 53% 30.19 in 10.0 mi SSE 8.1 mph - N/A   Clear
10:15 PM 42.8 °F 37.5 °F 26.6 °F 53% 30.20 in 10.0 mi SSE 9.2 mph - N/A   Clear
10:35 PM 42.8 °F 37.0 °F 26.6 °F 53% 30.20 in 10.0 mi SSE 10.4 mph - N/A   Clear
10:55 PM 42.8 °F 37.0 °F 26.6 °F 53% 30.19 in 10.0 mi SSE 10.4 mph - N/A   Clear
11:15 PM 42.8 °F 36.6 °F 26.6 °F 53% 30.20 in 10.0 mi SSE 11.5 mph - N/A   Clear
11:35 PM 44.6 °F 38.4 °F 26.6 °F 49% 30.20 in 10.0 mi SSE 12.7 mph - N/A   Clear
11:55 PM 44.6 °F 38.4 °F 26.6 °F 49% 30.20 in 10.0 mi South 12.7 mph - N/A   Clear